Morgantown, WV

9:50 AM EDT on May 28, 2017 (GMT -0400)
Morgantown Municipal-Hart

Weather History for KMGW - February, 1998

Change the Weather History Date:

Friday, February 13, 1998

  Actual Average Record
Temperature  
Mean Temperature 35 °F 34 °F  
Max Temperature 37 °F 42 °F 65 °F (1984)
Min Temperature 33 °F 25 °F 0 °F (1981)
Degree Days  
Heating Degree Days 30 31  
Month to date heating degree days 418  
Since 1 July heating degree days 3445  
Cooling Degree Days 0 0  
Month to date cooling degree days 0  
Year to date cooling degree days 0  
Moisture  
Dew Point 27 °F    
Average Humidity 73    
Maximum Humidity 75    
Minimum Humidity 65    
Precipitation  
Precipitation 0.00 in 0.09 in 1.26 in (1972)
Month to date precipitation 1.18  
Year to date precipitation 3.99  
Sea Level Pressure  
Sea Level Pressure 30.07 in    
Wind  
Wind Speed 5 mph (West)    
Max Wind Speed 7 mph    
Max Gust Speed -    
Visibility 13 miles    
Events Snow    
T = Trace of Precipitation, MM = Missing Value Source: NWS Daily Summary

Daily Weather History Graph

Daily Weather History Graph

Search for Another Location

Airport or City:

Trip Planner

Search our weather history database for the weather conditions in past years. The results will help you decide how hot, cold, wet, or windy it might be!

Date:

Astronomy

Feb. 13, 1998 Rise Set
Actual Time 7:14 AM EST 5:53 PM EST
Civil Twilight 6:46 AM EST 6:21 PM EST
Nautical Twilight 6:15 AM EST 6:53 PM EST
Astronomical Twilight 5:44 AM EST 7:24 PM EST
Moon 8:12 PM EST (2/13) 8:20 AM EST (2/13)
Length of Visible Light 11h 34m
Length of Day
10h 39m
Waning Gibbous, 95% of the Moon is Illuminated
Feb 13
Waning Gibbous
Feb 19
Last Quarter
Feb 26
New
Mar 5
First Quarter
Mar 12
Full

Hourly Weather History & Observations

Time (EST) Temp. Windchill Dew Point Humidity Pressure Visibility Wind Dir Wind Speed Gust Speed Precip Events Conditions
12:47 AM 35.6 °F 29.9 °F 28.4 °F 75% 30.05 in 10.0 mi West 6.9 mph - N/A   Overcast
1:47 AM 33.8 °F 27.7 °F 26.6 °F 75% 30.05 in 15.0 mi West 6.9 mph - N/A   Overcast
2:47 AM 33.8 °F 29.6 °F 26.6 °F 75% 30.06 in 10.0 mi Variable 4.6 mph - N/A   Overcast
3:47 AM 33.8 °F - 26.6 °F 75% 30.06 in 10.0 mi Calm Calm - N/A   Overcast
4:47 AM 33.8 °F 29.6 °F 26.6 °F 75% 30.06 in 10.0 mi Variable 4.6 mph - N/A   Overcast
5:47 AM 33.8 °F 30.8 °F 26.6 °F 75% 30.08 in 10.0 mi Variable 3.5 mph - N/A   Overcast
6:47 AM 33.8 °F 27.7 °F 26.6 °F 75% 30.08 in 10.0 mi Variable 6.9 mph - N/A   Overcast
7:45 AM 33.8 °F 28.6 °F 26.6 °F 75% 30.06 in 15.0 mi WSW 5.8 mph - N/A   Overcast
8:45 AM 33.8 °F 28.6 °F 24.8 °F 70% 30.08 in 10.0 mi West 5.8 mph - N/A   Overcast
9:45 AM 33.8 °F 27.7 °F 24.8 °F 70% 30.10 in 3.0 mi WSW 6.9 mph - N/A Snow Light Snow Grains
10:45 AM 33.8 °F 28.6 °F 26.6 °F 75% 30.09 in 10.0 mi West 5.8 mph - N/A   Overcast
11:45 AM 35.6 °F 29.9 °F 28.4 °F 75% 30.09 in 10.0 mi WSW 6.9 mph - N/A   Overcast
12:45 PM 35.6 °F 31.7 °F 28.4 °F 75% 30.06 in 15.0 mi WSW 4.6 mph - N/A   Overcast
1:45 PM 35.6 °F 31.7 °F 28.4 °F 75% 30.04 in 15.0 mi NNW 4.6 mph - N/A   Overcast
2:45 PM 37.4 °F 33.8 °F 26.6 °F 65% 30.03 in 15.0 mi Variable 4.6 mph - N/A   Overcast
3:45 PM 37.4 °F 32.8 °F 28.4 °F 70% 30.03 in 15.0 mi NW 5.8 mph - N/A   Overcast
4:45 PM 35.6 °F 30.7 °F 24.8 °F 65% 30.04 in 15.0 mi NW 5.8 mph - N/A   Overcast
5:45 PM 35.6 °F 32.8 °F 24.8 °F 65% 30.05 in 15.0 mi WNW 3.5 mph - N/A   Overcast
6:45 PM 35.6 °F - 26.6 °F 70% 30.06 in 15.0 mi Calm Calm - N/A   Overcast
7:45 PM 33.8 °F - 26.6 °F 75% 30.07 in 15.0 mi Calm Calm - N/A   Overcast
8:45 PM 33.8 °F - 26.6 °F 75% 30.07 in 15.0 mi Calm Calm - N/A   Overcast
9:45 PM 33.8 °F - 26.6 °F 75% 30.08 in 15.0 mi Calm Calm - N/A   Overcast
10:45 PM 33.8 °F - 24.8 °F 70% 30.08 in 15.0 mi Calm Calm - N/A   Overcast
11:45 PM 33.8 °F - 24.8 °F 70% 30.09 in 15.0 mi Calm Calm - N/A   Overcast